Location: Observatoire POLARIS
(46.3550°N, 73.3861°W)
Time: 11:01:05
(UTC-05:00)

OTV 5 (USA 277) - Visible Passes

Search period start: 19 November 2017 00:00
Search period end: 29 November 2017 00:00
Orbit: 404 x 417 km, 43.0° (Epoch: 07 September)

Date Brightness Start Highest point End Pass type
(mag) Time Alt. Az. Time Alt. Az. Time Alt. Az.
19 Nov ? 04:15:55 13° SE 04:15:55 13° SE 04:16:23 10° SE visible
19 Nov ? 05:48:41 11° SW 05:50:05 13° SSW 05:51:47 10° S visible
20 Nov ? 05:00:10 16° S 05:00:10 16° S 05:01:32 10° SSE visible
